Change the Weather History Date:

Monday, October 18, 2010

  Actual Average Record
Temperature  
Mean Temperature 54 °F -  
Max Temperature 56 °F 54 °F 68 °F (1997)
Min Temperature 50 °F 42 °F 37 °F (2002)
Degree Days  
Heating Degree Days 12    
Growing Degree Days 4 (Base 50)    
Moisture  
Dew Point 49 °F    
Average Humidity 88    
Maximum Humidity 100    
Minimum Humidity 76    
Precipitation  
Precipitation 0.02 in 0.12 in - ()
Sea Level Pressure  
Sea Level Pressure 30.18 in    
Wind  
Wind Speed 10 mph ()    
Max Wind Speed 22 mph    
Max Gust Speed -    
Visibility 6.5 miles    
Events Rain    
Averages and records for this station are not official NWS values.
T = Trace of Precipitation, MM = Missing Value Source: Averaged Metar Reports

Daily Weather History Graph

Daily Weather History Graph

Search for Another Location

Airport or City:

Trip Planner

Search our weather history database for the weather conditions in past years. The results will help you decide how hot, cold, wet, or windy it might be!

Date:

Astronomy

Oct. 18, 2010 Rise Set
Actual Time 8:06 AM IST 6:34 PM IST
Civil Twilight 7:31 AM IST 7:09 PM IST
Nautical Twilight 6:51 AM IST 7:48 PM IST
Astronomical Twilight 6:12 AM IST 8:28 PM IST
Moon 4:41 PM IST (10/18) 3:09 AM IST (10/18)
Length of Visible Light 11h 37m
Length of Day
10h 27m
Waxing Gibbous, 81% of the Moon is Illuminated
Oct 18
Waxing Gibbous
Oct 23
Full
Oct 30
Last Quarter
Nov 6
New
Nov 13
First Quarter

Hourly Weather History & Observations

Time (IST) Temp. Dew Point Humidity Pressure Visibility Wind Dir Wind Speed Gust Speed Precip Events Conditions
12:00 AM 51.8 °F 51.8 °F 100% 30.24 in 6.2 mi WSW 6.9 mph - N/A   Mostly Cloudy
12:30 AM 51.8 °F 51.8 °F 100% 30.24 in 6.2 mi WSW 6.9 mph - N/A   Mostly Cloudy
1:00 AM 52 °F 51 °F 94% 30.27 in 12 mi WSW 8.9 mph - -   Partly Cloudy
1:00 AM 51.8 °F 50.0 °F 94% 30.24 in 6.2 mi WSW 8.1 mph - N/A   Mostly Cloudy
1:30 AM 51.8 °F 50.0 °F 94% 30.24 in 6.2 mi West 4.6 mph - N/A   Mostly Cloudy
2:00 AM 51.8 °F 50.0 °F 94% 30.24 in 6.2 mi West 6.9 mph - N/A   Mostly Cloudy
2:30 AM 51.8 °F 50.0 °F 94% 30.24 in 6.2 mi West 8.1 mph - N/A   Mostly Cloudy
3:00 AM 51.8 °F 48.2 °F 88% 30.24 in 6.2 mi WSW 8.1 mph - N/A   Mostly Cloudy
3:30 AM 51.8 °F 48.2 °F 88% 30.24 in 6.2 mi SW 6.9 mph - N/A   Mostly Cloudy
4:00 AM 51.8 °F 48.2 °F 88% 30.24 in 6.2 mi WSW 8.1 mph - N/A   Mostly Cloudy
4:30 AM 51.8 °F 48.2 °F 88% 30.21 in 6.2 mi West 5.8 mph - N/A   Mostly Cloudy
5:00 AM 51.8 °F 48.2 °F 88% 30.21 in 6.2 mi WSW 5.8 mph - N/A   Mostly Cloudy
5:30 AM 51.8 °F 48.2 °F 88% 30.21 in 6.2 mi WSW 8.1 mph - N/A   Mostly Cloudy
6:00 AM 51.8 °F 48.2 °F 88% 30.21 in 6.2 mi WSW 6.9 mph - N/A   Mostly Cloudy
6:30 AM 51.8 °F 48.2 °F 88% 30.21 in 6.2 mi WSW 5.8 mph - N/A   Mostly Cloudy
7:00 AM 53 °F 48 °F 76% 30.23 in 12 mi West 8.9 mph - -   Mostly Cloudy
7:00 AM 51.8 °F 48.2 °F 88% 30.21 in 6.2 mi West 8.1 mph - N/A   Mostly Cloudy
7:30 AM 51.8 °F 48.2 °F 88% 30.21 in 6.2 mi WSW 6.9 mph - N/A   Mostly Cloudy
8:00 AM 51.8 °F 48.2 °F 88% 30.21 in 6.2 mi SW 8.1 mph - N/A   Mostly Cloudy
8:30 AM 53.6 °F 48.2 °F 82% 30.21 in 6.2 mi WSW 10.4 mph - N/A   Mostly Cloudy
9:00 AM 53.6 °F 48.2 °F 82% 30.21 in 6.2 mi WSW 10.4 mph - N/A   Mostly Cloudy
9:30 AM 53.6 °F 48.2 °F 82% 30.24 in 6.2 mi West 10.4 mph - N/A Rain Light Rain Showers
10:00 AM 53.6 °F 51.8 °F 94% 30.21 in 6.2 mi WSW 9.2 mph - N/A   Mostly Cloudy
10:30 AM 53.6 °F 50.0 °F 88% 30.21 in 6.2 mi West 10.4 mph - N/A   Mostly Cloudy
11:00 AM 55.4 °F 50.0 °F 82% 30.21 in 6.2 mi West 13.8 mph - N/A   Mostly Cloudy
11:30 AM 55.4 °F 50.0 °F 82% 30.21 in 6.2 mi West 15.0 mph - N/A Rain Light Rain Showers
12:00 PM 55.4 °F 48.2 °F 77% 30.21 in 6.2 mi West 15.0 mph - N/A   Mostly Cloudy
12:30 PM 55.4 °F 51.8 °F 88% 30.18 in 6.2 mi West 15.0 mph - N/A   Mostly Cloudy
1:00 PM 55 °F 50 °F 79% 30.20 in 10 mi West 15.7 mph - - Rain Light Rain Showers
1:00 PM 55.4 °F 50.0 °F 82% 30.18 in 6.2 mi West 16.1 mph - N/A   Mostly Cloudy
1:30 PM 55.4 °F 50.0 °F 82% 30.18 in 6.2 mi West 12.7 mph - N/A   Mostly Cloudy
2:00 PM 55.4 °F 50.0 °F 82% 30.18 in 6.2 mi West 16.1 mph - N/A   Mostly Cloudy
2:30 PM 55.4 °F 50.0 °F 82% 30.18 in 6.2 mi West 17.3 mph - N/A   Mostly Cloudy
3:00 PM 55.4 °F 50.0 °F 82% 30.15 in 6.2 mi West 19.6 mph - N/A Rain Light Rain Showers
3:30 PM 53.6 °F 51.8 °F 94% 30.15 in 4.3 mi West 16.1 mph - N/A Rain Light Rain Showers
4:00 PM 53.6 °F 50.0 °F 88% 30.15 in 6.2 mi West 15.0 mph - N/A   Mostly Cloudy
4:30 PM 53.6 °F 50.0 °F 88% 30.12 in 6.2 mi West 21.9 mph - N/A   Mostly Cloudy
5:00 PM 53.6 °F 50.0 °F 88% 30.12 in 6.2 mi West 19.6 mph - N/A   Mostly Cloudy
5:30 PM 53.6 °F 50.0 °F 88% 30.12 in 6.2 mi West 13.8 mph - N/A   Mostly Cloudy
6:00 PM 53.6 °F 50.0 °F 88% 30.12 in 6.2 mi West 18.4 mph - N/A   Mostly Cloudy
6:30 PM 51.8 °F 50.0 °F 94% 30.12 in 1.9 mi West 15.0 mph - N/A Rain Light Rain Showers
7:00 PM 52 °F 50 °F 89% 30.13 in 12 mi West 15.7 mph - - Rain Light Rain Showers
7:00 PM 51.8 °F 50.0 °F 94% 30.12 in 6.2 mi West 16.1 mph - N/A   Mostly Cloudy
7:30 PM 51.8 °F 50.0 °F 94% 30.12 in 6.2 mi West 20.7 mph - N/A   Mostly Cloudy
8:00 PM 51.8 °F 48.2 °F 88% 30.09 in 6.2 mi West 15.0 mph - N/A   Mostly Cloudy
8:30 PM 51.8 °F 48.2 °F 88% 30.09 in 6.2 mi West 10.4 mph - N/A Rain Light Rain Showers
9:00 PM 51.8 °F 50.0 °F 94% 30.09 in 6.2 mi West 12.7 mph - N/A Rain Light Rain Showers
9:30 PM 51.8 °F 50.0 °F 94% 30.09 in 6.2 mi West 15.0 mph - N/A   Mostly Cloudy
10:00 PM 51.8 °F 48.2 °F 88% 30.09 in 6.2 mi West 12.7 mph - N/A   Mostly Cloudy
10:30 PM 51.8 °F 48.2 °F 88% 30.09 in 6.2 mi West 15.0 mph - N/A   Mostly Cloudy
11:00 PM 51.8 °F 48.2 °F 88% 30.09 in 6.2 mi West 12.7 mph - N/A   Mostly Cloudy
11:30 PM 50.0 °F 48.2 °F 94% 30.09 in 6.2 mi WNW 11.5 mph - N/A   Mostly Cloudy